Volver al catálogo

APRIZESAT 8

ActivoComunicacionesSSO
NORAD 39425·PAYLOAD·🇺🇸 United States

Lanzado Nov 21, 2013 desde Dombarovsky

Loading…

Próximos Pases (próximas 24 horas)

TLE

ActualizadoSource: Space-Track

Época: Sep 14, 2026, 07:49 UTC

1 39425U 13066K   26257.32592225  .00000888  00000-0  10168-3 0  9994
2 39425  97.8293 203.5860 0045677 354.5808   5.4908 14.87793278692929

Sigue APRIZESAT 8 en tiempo real con AllMySat

Download on the App Store